TimeEST,TemperatureF,Dew PointF,Humidity,Sea Level PressureIn,VisibilityMPH,Wind Direction,Wind SpeedMPH,Gust SpeedMPH,PrecipitationIn,Events,Conditions,WindDirDegrees,DateUTC
12:53 AM,45.0,37.9,76,30.15,10.0,NNW,6.9,-,N/A,,Clear,330,2014-01-17 05:53:00
1:53 AM,45.0,37.0,74,30.16,10.0,North,6.9,-,N/A,,Clear,350,2014-01-17 06:53:00
2:53 AM,45.0,37.0,74,30.15,10.0,North,6.9,-,N/A,,Clear,360,2014-01-17 07:53:00
3:53 AM,43.0,37.0,80,30.15,10.0,NNW,6.9,-,N/A,,Clear,340,2014-01-17 08:53:00
4:53 AM,43.0,37.0,80,30.15,10.0,NNW,5.8,-,N/A,,Clear,340,2014-01-17 09:53:00
5:53 AM,39.9,37.9,93,30.16,10.0,NW,6.9,-,N/A,,Clear,320,2014-01-17 10:53:00
6:53 AM,42.1,37.9,85,30.17,10.0,NNW,5.8,-,N/A,,Clear,340,2014-01-17 11:53:00
7:53 AM,45.0,41.0,86,30.18,10.0,NNW,4.6,-,N/A,,Clear,330,2014-01-17 12:53:00
8:53 AM,50.0,41.0,71,30.22,10.0,NNW,8.1,-,N/A,,Clear,340,2014-01-17 13:53:00
9:53 AM,55.0,41.0,59,30.23,10.0,NW,6.9,-,N/A,,Clear,320,2014-01-17 14:53:00
10:53 AM,57.9,36.0,44,30.22,10.0,Variable,6.9,-,N/A,,Clear,0,2014-01-17 15:53:00
11:53 AM,62.1,36.0,38,30.19,10.0,NW,5.8,-,N/A,,Clear,310,2014-01-17 16:53:00
12:53 PM,63.0,37.0,38,30.16,10.0,NW,5.8,-,N/A,,Clear,320,2014-01-17 17:53:00
1:53 PM,64.0,33.1,31,30.12,10.0,Variable,4.6,-,N/A,,Clear,0,2014-01-17 18:53:00
2:53 PM,64.0,34.0,33,30.11,10.0,Variable,4.6,-,N/A,,Clear,0,2014-01-17 19:53:00
3:53 PM,63.0,35.1,35,30.12,10.0,NW,8.1,-,N/A,,Clear,310,2014-01-17 20:53:00
4:53 PM,61.0,32.0,34,30.12,10.0,NW,9.2,-,N/A,,Clear,320,2014-01-17 21:53:00
5:53 PM,55.9,41.0,57,30.13,10.0,WNW,4.6,-,N/A,,Clear,300,2014-01-17 22:53:00
6:53 PM,57.9,39.9,51,30.14,10.0,NW,8.1,-,N/A,,Clear,320,2014-01-17 23:53:00
7:53 PM,57.9,39.0,49,30.17,10.0,NNW,8.1,-,N/A,,Clear,340,2014-01-18 00:53:00
8:53 PM,57.0,37.0,47,30.18,10.0,North,5.8,-,N/A,,Clear,350,2014-01-18 01:53:00
9:53 PM,53.1,43.0,69,30.18,10.0,WNW,3.5,-,N/A,,Clear,300,2014-01-18 02:53:00
10:53 PM,53.1,45.0,74,30.18,10.0,WNW,4.6,-,N/A,,Clear,300,2014-01-18 03:53:00
11:53 PM,52.0,44.1,74,30.17,10.0,WNW,4.6,-,N/A,,Clear,290,2014-01-18 04:53:00